Change the Weather History Date:

Wednesday, January 16, 2013

  Actual Average Record
Temperature  
Mean Temperature 27 °F -  
Max Temperature 28 °F - - ()
Min Temperature 26 °F - - ()
Degree Days  
Heating Degree Days 38    
Moisture  
Dew Point 26 °F    
Average Humidity 95    
Maximum Humidity 100    
Minimum Humidity 93    
Precipitation  
Precipitation 0.00 in - - ()
Sea Level Pressure  
Sea Level Pressure 29.71 in    
Wind  
Wind Speed 3 mph ()    
Max Wind Speed 6 mph    
Max Gust Speed -    
Visibility 2.2 miles    
Events Snow    
T = Trace of Precipitation, MM = Missing Value Source: Averaged Metar Reports

Daily Weather History Graph

Daily Weather History Graph

Search for Another Location

Airport or City:

Trip Planner

Search our weather history database for the weather conditions in past years. The results will help you decide how hot, cold, wet, or windy it might be!

Date:

Astronomy

Jan. 16, 2013 Rise Set
Actual Time 7:48 AM CET 4:25 PM CET
Civil Twilight 7:12 AM CET 5:02 PM CET
Nautical Twilight 6:31 AM CET 5:42 PM CET
Astronomical Twilight 5:53 AM CET 6:21 PM CET
Moon 9:40 AM CET (1/16) 10:38 PM CET (1/16)
Length of Visible Light 9h 49m
Length of Day
8h 36m
Waxing Crescent, 25% of the Moon is Illuminated
Jan 16
Waxing Crescent
Jan 19
First Quarter
Jan 27
Full
Feb 3
Last Quarter
Feb 10
New

Hourly Weather History & Observations

Time (CET) Temp. Windchill Dew Point Humidity Pressure Visibility Wind Dir Wind Speed Gust Speed Precip Events Conditions
12:00 AM 28.4 °F - 26.6 °F 93% 29.74 in 1.6 mi WNW 2.3 mph - N/A   Overcast
1:00 AM 26.6 °F - 26.6 °F 100% 29.74 in 1.2 mi Variable 2.3 mph - N/A   Overcast
2:15 AM 26.6 °F 22.6 °F 26.6 °F 100% 29.74 in 1.2 mi NW 3.5 mph - N/A   Overcast
3:00 AM 28.4 °F 24.6 °F 26.6 °F 93% 29.74 in 1.2 mi West 3.5 mph - N/A   Overcast
4:00 AM 26.6 °F 22.6 °F 26.6 °F 100% 29.71 in 1.2 mi WNW 3.5 mph - N/A   Overcast
5:00 AM 26.6 °F 22.6 °F 26.6 °F 100% 29.71 in 1.2 mi West 3.5 mph - N/A   Overcast
6:00 AM 26.6 °F 21.2 °F 26.6 °F 100% 29.71 in 2.2 mi West 4.6 mph - N/A   Overcast
6:26 AM 26.6 °F 20.0 °F 24.8 °F 93% 29.71 in 2.2 mi West 5.8 mph - N/A   Light Freezing Rain
8:00 AM 26.6 °F 20.0 °F 24.8 °F 93% 29.74 in 1.9 mi West 5.8 mph - N/A   Light Freezing Rain
9:00 AM 26.6 °F 21.2 °F 26.6 °F 100% 29.74 in 1.9 mi WNW 4.6 mph - N/A   Light Freezing Drizzle
10:00 AM 26.6 °F 20.0 °F 24.8 °F 93% 29.74 in 1.9 mi WNW 5.8 mph - N/A   Light Freezing Rain
10:41 AM 26.6 °F 21.2 °F 24.8 °F 93% 29.74 in 1.9 mi West 4.6 mph - N/A Snow Light Snow
11:00 AM 26.6 °F 20.0 °F 26.6 °F 100% 29.74 in 1.9 mi West 5.8 mph - N/A Snow Light Snow
11:28 AM 28.4 °F 22.2 °F 26.6 °F 93% 29.74 in 3.1 mi West 5.8 mph - N/A Snow Light Snow
12:00 PM 28.4 °F 24.6 °F 26.6 °F 93% 29.71 in 3.1 mi West 3.5 mph - N/A Snow Light Snow
1:00 PM 26.6 °F 20.0 °F 24.8 °F 93% 29.71 in 3.1 mi West 5.8 mph - N/A Snow Light Snow
2:00 PM 28.4 °F 23.3 °F 26.6 °F 93% 29.68 in 3.1 mi WNW 4.6 mph - N/A Snow Light Snow
3:00 PM 28.4 °F 23.3 °F 26.6 °F 93% 29.71 in 3.1 mi WSW 4.6 mph - N/A Snow Light Snow
4:00 PM 26.6 °F 22.6 °F 24.8 °F 93% 29.71 in 3.1 mi West 3.5 mph - N/A Snow Light Snow
4:17 PM 28.4 °F 24.6 °F 26.6 °F 93% 29.68 in 2.5 mi West 3.5 mph - N/A Snow Light Snow
5:00 PM 28.4 °F - 26.6 °F 93% 29.71 in 2.5 mi Variable 2.3 mph - N/A   Overcast
6:00 PM 28.4 °F 24.6 °F 26.6 °F 93% 29.71 in 2.5 mi West 3.5 mph - N/A   Overcast
7:00 PM 28.4 °F - 26.6 °F 93% 29.68 in 2.5 mi Variable 2.3 mph - N/A   Overcast
7:17 PM 28.4 °F - 28.4 °F 100% 29.68 in 2.5 mi Variable 2.3 mph - N/A   Overcast
8:00 PM 26.6 °F 22.6 °F 26.6 °F 100% 29.71 in 2.5 mi West 3.5 mph - N/A   Overcast
9:00 PM 28.4 °F - 26.6 °F 93% 29.68 in 2.5 mi Calm Calm - N/A   Overcast
10:00 PM 28.4 °F - 26.6 °F 93% 29.68 in 2.5 mi Calm Calm - N/A   Mist
11:00 PM 28.4 °F - 26.6 °F 93% 29.68 in 2.5 mi Variable 2.3 mph - N/A   Overcast